ACA46 CYVR-CYLW

Flight info

Callsign ACA46
Flight time 0h 36m
Altitude 23000
Route JANEK SEKAB SEKAB5
Aircraft A321/M-SDE3FGHIRWY/LB1

Departure

Time 2026-05-03 22:02
Airport Vancouver International Airport (CYVR)

Arrival

Time 2026-05-03 22:38
Airport Kelowna International Airport (CYLW)
Time Latitude Longitude Altitude Speed Heading
2026-05-03 21:47 49.19632 -123.18555 23 ft 0 kts 146°
2026-05-03 21:53 49.19638 -123.18560 25 ft 4 kts 146°
2026-05-03 21:53 49.19657 -123.18579 24 ft 4 kts 157°
2026-05-03 21:53 49.19681 -123.18585 24 ft 4 kts 197°
2026-05-03 21:54 49.19703 -123.18566 25 ft 4 kts 237°
2026-05-03 21:54 49.19709 -123.18531 26 ft 4 kts 280°
2026-05-03 21:54 49.19706 -123.18503 23 ft 0 kts 280°
2026-05-03 21:56 49.19710 -123.18539 23 ft 4 kts 280°
2026-05-03 21:56 49.19710 -123.18635 23 ft 15 kts 243°
2026-05-03 21:57 49.19605 -123.18690 24 ft 19 kts 189°
2026-05-03 21:57 49.19438 -123.18725 23 ft 26 kts 166°
2026-05-03 21:57 49.19326 -123.18699 23 ft 17 kts 194°
2026-05-03 21:57 49.19199 -123.18733 24 ft 18 kts 168°
2026-05-03 21:58 49.19089 -123.18614 25 ft 21 kts 142°
2026-05-03 21:58 49.18972 -123.18476 24 ft 22 kts 134°
2026-05-03 21:58 49.18927 -123.18232 23 ft 26 kts 99°
2026-05-03 21:58 49.18897 -123.17941 23 ft 29 kts 99°
2026-05-03 21:59 49.18858 -123.17616 24 ft 33 kts 100°
2026-05-03 21:59 49.18821 -123.17274 23 ft 32 kts 99°
2026-05-03 21:59 49.18784 -123.16947 23 ft 31 kts 100°
2026-05-03 21:59 49.18748 -123.16627 23 ft 30 kts 99°
2026-05-03 22:00 49.18716 -123.16342 25 ft 22 kts 102°
2026-05-03 22:00 49.18635 -123.16162 24 ft 20 kts 110°
2026-05-03 22:00 49.18565 -123.16035 25 ft 15 kts 173°
2026-05-03 22:00 49.18481 -123.16094 25 ft 14 kts 242°
2026-05-03 22:01 49.18485 -123.16242 23 ft 16 kts 280°
2026-05-03 22:01 49.18536 -123.16620 23 ft 68 kts 281°
2026-05-03 22:01 49.18653 -123.17635 27 ft 122 kts 280°
2026-05-03 22:01 49.18819 -123.19116 40 ft 161 kts 282°
2026-05-03 22:02 49.18972 -123.20759 679 ft 153 kts 278°
2026-05-03 22:02 49.19118 -123.22374 1246 ft 154 kts 277°
2026-05-03 22:02 49.19270 -123.24016 1735 ft 159 kts 277°
2026-05-03 22:02 49.19436 -123.25782 1963 ft 178 kts 279°
2026-05-03 22:03 49.19626 -123.27767 2114 ft 200 kts 278°
2026-05-03 22:03 49.19839 -123.29994 2268 ft 224 kts 279°
2026-05-03 22:03 49.20077 -123.32486 2543 ft 249 kts 278°
2026-05-03 22:03 49.20331 -123.35140 3120 ft 260 kts 278°
2026-05-03 22:04 49.20598 -123.37939 3882 ft 265 kts 278°
2026-05-03 22:04 49.20867 -123.40748 4641 ft 270 kts 278°
2026-05-03 22:04 49.21140 -123.43572 5392 ft 274 kts 279°
2026-05-03 22:04 49.21420 -123.46474 6185 ft 277 kts 279°
2026-05-03 22:05 49.21703 -123.49411 6920 ft 281 kts 278°
2026-05-03 22:05 49.21987 -123.52384 7664 ft 284 kts 279°
2026-05-03 22:05 49.22278 -123.55399 8385 ft 288 kts 281°
2026-05-03 22:05 49.22956 -123.58269 9076 ft 290 kts 305°
2026-05-03 22:06 49.24382 -123.60414 9781 ft 290 kts 331°
2026-05-03 22:06 49.26294 -123.61441 10204 ft 301 kts 355°
2026-05-03 22:06 49.28458 -123.61426 10361 ft 322 kts
2026-05-03 22:06 49.30718 -123.60935 10480 ft 344 kts 17°
2026-05-03 22:07 49.32888 -123.59213 10597 ft 363 kts 39°
2026-05-03 22:07 49.34517 -123.56173 10768 ft 380 kts 61°
2026-05-03 22:07 49.35703 -123.52500 11221 ft 387 kts 64°
2026-05-03 22:07 49.36875 -123.48756 11789 ft 391 kts 64°
2026-05-03 22:08 49.38052 -123.44976 12387 ft 394 kts 63°
2026-05-03 22:08 49.39239 -123.41170 12972 ft 397 kts 63°
2026-05-03 22:08 49.40442 -123.37331 13517 ft 401 kts 63°
2026-05-03 22:08 49.41656 -123.33455 14030 ft 405 kts 63°
2026-05-03 22:09 49.42865 -123.29600 14526 ft 407 kts 63°
2026-05-03 22:09 49.44097 -123.25664 15022 ft 410 kts 63°
2026-05-03 22:09 49.45336 -123.21699 15504 ft 413 kts 63°
2026-05-03 22:10 49.47838 -123.13680 16499 ft 419 kts 63°
2026-05-03 22:10 49.49097 -123.09634 16974 ft 422 kts 63°
2026-05-03 22:10 49.50367 -123.05548 17442 ft 425 kts 63°
2026-05-03 22:10 49.51644 -123.01430 17926 ft 428 kts 63°
2026-05-03 22:11 49.52927 -122.97278 18362 ft 431 kts 63°
2026-05-03 22:11 49.54219 -122.93092 18778 ft 434 kts 63°
2026-05-03 22:11 49.55500 -122.88935 19174 ft 437 kts 63°
2026-05-03 22:11 49.56802 -122.84696 19616 ft 439 kts 63°
2026-05-03 22:12 49.58112 -122.80435 20034 ft 441 kts 63°
2026-05-03 22:12 49.59429 -122.76154 20483 ft 443 kts 63°
2026-05-03 22:12 49.60749 -122.71850 20909 ft 445 kts 63°
2026-05-03 22:12 49.62074 -122.67518 21331 ft 448 kts 63°
2026-05-03 22:13 49.63403 -122.63161 21704 ft 450 kts 63°
2026-05-03 22:13 49.64732 -122.58789 22076 ft 453 kts 63°
2026-05-03 22:13 49.66070 -122.54376 22421 ft 455 kts 63°
2026-05-03 22:13 49.67508 -122.50017 22778 ft 456 kts 57°
2026-05-03 22:14 49.69297 -122.46063 22964 ft 456 kts 49°
2026-05-03 22:14 49.71318 -122.42251 22991 ft 460 kts 49°
2026-05-03 22:14 49.73350 -122.38420 22989 ft 461 kts 49°
2026-05-03 22:14 49.75381 -122.34575 22984 ft 462 kts 49°
2026-05-03 22:15 49.77412 -122.30714 22979 ft 463 kts 49°
2026-05-03 22:15 49.79440 -122.26840 22979 ft 463 kts 49°
2026-05-03 22:15 49.81466 -122.22956 22982 ft 464 kts 49°
2026-05-03 22:15 49.83489 -122.19070 22984 ft 463 kts 49°
2026-05-03 22:16 49.85487 -122.15234 22978 ft 464 kts 49°
2026-05-03 22:16 49.87511 -122.11356 22981 ft 464 kts 49°
2026-05-03 22:16 49.89538 -122.07464 22976 ft 464 kts 49°
2026-05-03 22:16 49.91561 -122.03569 22984 ft 463 kts 49°
2026-05-03 22:17 49.93584 -121.99672 22968 ft 464 kts 49°
2026-05-03 22:17 49.95609 -121.95770 22950 ft 464 kts 49°
2026-05-03 22:17 49.97631 -121.91861 22949 ft 464 kts 49°
2026-05-03 22:17 49.99657 -121.87942 22952 ft 465 kts 49°
2026-05-03 22:18 50.01683 -121.84012 22954 ft 466 kts 49°
2026-05-03 22:18 50.03707 -121.80072 22957 ft 466 kts 49°
2026-05-03 22:18 50.05618 -121.76075 22951 ft 468 kts 56°
2026-05-03 22:18 50.07141 -121.71598 22946 ft 470 kts 65°
2026-05-03 22:19 50.08193 -121.66757 22951 ft 475 kts 74°
2026-05-03 22:19 50.08736 -121.61676 22950 ft 478 kts 83°
2026-05-03 22:19 50.08809 -121.56492 22954 ft 480 kts 88°
2026-05-03 22:19 50.08806 -121.51300 22956 ft 480 kts 88°
2026-05-03 22:20 50.08802 -121.46107 22962 ft 480 kts 88°
2026-05-03 22:20 50.08797 -121.40987 22955 ft 478 kts 88°
2026-05-03 22:20 50.08791 -121.35803 22967 ft 479 kts 88°
2026-05-03 22:20 50.08784 -121.30617 22970 ft 479 kts 88°
2026-05-03 22:21 50.08773 -121.25447 22972 ft 478 kts 88°
2026-05-03 22:21 50.08757 -121.20267 22972 ft 478 kts 88°
2026-05-03 22:21 50.08736 -121.15084 22983 ft 479 kts 88°
2026-05-03 22:21 50.08713 -121.09897 22975 ft 479 kts 88°
2026-05-03 22:22 50.08687 -121.04708 22967 ft 479 kts 88°
2026-05-03 22:22 50.08662 -120.99517 22969 ft 480 kts 88°
2026-05-03 22:22 50.08635 -120.94393 22974 ft 478 kts 88°
2026-05-03 22:22 50.08605 -120.89249 22980 ft 473 kts 88°
2026-05-03 22:23 50.08572 -120.84132 22979 ft 472 kts 88°
2026-05-03 22:23 50.08537 -120.79021 22410 ft 472 kts 88°
2026-05-03 22:23 50.08502 -120.73950 20843 ft 464 kts 89°
2026-05-03 22:23 50.08465 -120.68963 19213 ft 457 kts 89°
2026-05-03 22:24 50.08425 -120.64066 17848 ft 454 kts 89°
2026-05-03 22:24 50.08384 -120.59193 17334 ft 444 kts 89°
2026-05-03 22:24 50.08342 -120.54423 16702 ft 438 kts 89°
2026-05-03 22:24 50.08298 -120.49718 16049 ft 431 kts 89°
2026-05-03 22:25 50.08253 -120.45141 15447 ft 426 kts 87°
2026-05-03 22:25 50.08208 -120.40564 14856 ft 420 kts 88°
2026-05-03 22:25 50.08162 -120.36047 14291 ft 416 kts 89°
2026-05-03 22:25 50.08113 -120.31523 14057 ft 419 kts 88°
2026-05-03 22:26 50.08066 -120.26989 14003 ft 419 kts 88°
2026-05-03 22:26 50.08017 -120.22448 14027 ft 420 kts 89°
2026-05-03 22:26 50.07966 -120.17906 14023 ft 420 kts 88°
2026-05-03 22:26 50.07909 -120.13365 13764 ft 418 kts 89°
2026-05-03 22:27 50.07847 -120.08912 13523 ft 403 kts 89°
2026-05-03 22:27 50.07782 -120.04712 13390 ft 386 kts 89°
2026-05-03 22:27 50.07720 -120.00617 13253 ft 371 kts 89°
2026-05-03 22:27 50.07665 -119.96679 13121 ft 357 kts 90°
2026-05-03 22:28 50.07613 -119.92889 12986 ft 344 kts 87°
2026-05-03 22:28 50.07561 -119.89240 12849 ft 331 kts 88°
2026-05-03 22:28 50.07510 -119.85723 12654 ft 321 kts 87°
2026-05-03 22:28 50.07461 -119.82207 11806 ft 328 kts 87°
2026-05-03 22:29 50.07408 -119.78679 10947 ft 323 kts 89°
2026-05-03 22:29 50.07201 -119.76385 10407 ft 329 kts 104°
2026-05-03 22:29 50.05570 -119.72313 9333 ft 347 kts 140°
2026-05-03 22:29 50.03481 -119.70573 9145 ft 336 kts 163°
2026-05-03 22:30 50.01270 -119.69638 9016 ft 323 kts 166°
2026-05-03 22:30 49.99134 -119.68772 8844 ft 313 kts 166°
2026-05-03 22:30 49.97057 -119.67947 8670 ft 304 kts 166°
2026-05-03 22:30 49.95010 -119.67334 8502 ft 295 kts 172°
2026-05-03 22:31 49.93020 -119.66847 8346 ft 285 kts 172°
2026-05-03 22:31 49.91738 -119.66529 8263 ft 278 kts 172°
2026-05-03 22:31 49.89274 -119.65911 8069 ft 264 kts 172°
2026-05-03 22:31 49.87493 -119.65460 7876 ft 257 kts 171°
2026-05-03 22:32 49.85729 -119.65015 7540 ft 256 kts 172°
2026-05-03 22:32 49.83970 -119.64572 7224 ft 256 kts 171°
2026-05-03 22:32 49.82224 -119.64059 6932 ft 256 kts 163°
2026-05-03 22:32 49.81149 -119.63335 6698 ft 255 kts 148°
2026-05-03 22:33 49.79827 -119.61569 6375 ft 249 kts 127°
2026-05-03 22:33 49.78992 -119.59272 6055 ft 243 kts 107°
2026-05-03 22:33 49.78727 -119.55914 5664 ft 236 kts 80°
2026-05-03 22:33 49.79151 -119.53491 5380 ft 232 kts 60°
2026-05-03 22:34 49.80032 -119.51453 5121 ft 226 kts 44°
2026-05-03 22:34 49.81116 -119.49790 4843 ft 213 kts 40°
2026-05-03 22:34 49.81805 -119.48733 4649 ft 207 kts 41°
2026-05-03 22:34 49.82800 -119.47191 4392 ft 197 kts 45°
2026-05-03 22:35 49.83589 -119.45528 4156 ft 188 kts 58°
2026-05-03 22:35 49.84104 -119.43709 3925 ft 182 kts 70°
2026-05-03 22:35 49.84700 -119.41343 3614 ft 175 kts 55°
2026-05-03 22:35 49.85359 -119.39802 3415 ft 170 kts 45°
2026-05-03 22:36 49.86169 -119.38485 3164 ft 167 kts 35°
2026-05-03 22:36 49.86805 -119.37793 2997 ft 165 kts 25°
2026-05-03 22:36 49.87822 -119.37133 2790 ft 159 kts 12°
2026-05-03 22:36 49.88921 -119.36889 2563 ft 159 kts 358°
2026-05-03 22:37 49.89991 -119.37004 2344 ft 148 kts 352°
2026-05-03 22:37 49.91007 -119.37144 2139 ft 148 kts 353°
2026-05-03 22:37 49.92026 -119.37285 1912 ft 145 kts 354°
2026-05-03 22:37 49.93023 -119.37405 1721 ft 143 kts 351°
2026-05-03 22:38 49.94025 -119.37560 1558 ft 144 kts 347°
2026-05-03 22:38 49.95012 -119.37697 1387 ft 135 kts 351°
2026-05-03 22:38 49.95855 -119.37805 1402 ft 107 kts 352°
2026-05-03 22:38 49.96341 -119.37884 1405 ft 38 kts 354°
2026-05-03 22:39 49.96569 -119.37923 1406 ft 20 kts 345°
2026-05-03 22:39 49.96590 -119.38042 1406 ft 10 kts 217°
2026-05-03 22:39 49.96526 -119.38045 1407 ft 10 kts 178°
2026-05-03 22:39 49.96420 -119.38034 1403 ft 20 kts 175°
2026-05-03 22:40 49.96256 -119.38011 1398 ft 26 kts 175°
2026-05-03 22:40 49.96065 -119.37987 1395 ft 32 kts 176°
2026-05-03 22:40 49.95828 -119.37957 1387 ft 35 kts 173°
2026-05-03 22:40 49.95586 -119.37916 1381 ft 35 kts 174°
2026-05-03 22:41 49.95341 -119.37883 1377 ft 36 kts 175°
2026-05-03 22:41 49.95103 -119.37849 1373 ft 34 kts 175°
2026-05-03 22:41 49.94967 -119.37857 1371 ft 11 kts 236°
2026-05-03 22:41 49.94959 -119.37968 1371 ft 9 kts 291°
2026-05-03 22:42 49.94979 -119.38003 1371 ft 0 kts 312°